Silver City, NM

3:39 AM MST on December 14, 2019 (GMT -0700)
Grant County

Weather History for KSVC - October, 2019

Change the Weather History Date:

Wednesday, October 30, 2019

  Actual Average (KDMN) Record (KDMN)
Temperature  
Mean Temperature 41 °F 56 °F  
Max Temperature 57 °F 72 °F 86 °F (2010)
Min Temperature 23 °F 40 °F 26 °F (1967)
Degree Days  
Heating Degree Days 24    
Moisture  
Dew Point 0 °F    
Average Humidity 19    
Maximum Humidity 40    
Minimum Humidity 5    
Precipitation  
Precipitation 0.00 in 0.02 in 0.58 in (1959)
Month to date precipitation 1.03  
Year to date precipitation 9.92  
Sea Level Pressure  
Sea Level Pressure 30.14 in    
Wind  
Wind Speed 8 mph (NNW)    
Max Wind Speed 17 mph    
Max Gust Speed 30 mph    
Visibility 10 miles    
Events      
T = Trace of Precipitation, MM = Missing Value Source: NWS Daily Summary

Daily Weather History Graph

Daily Weather History Graph

Search for Another Location

Airport or City:

Astronomy

Oct. 30, 2019 Rise Set
Actual Time 7:28 AM MDT 6:23 PM MDT
Civil Twilight 7:02 AM MDT 6:49 PM MDT
Nautical Twilight 6:33 AM MDT 7:18 PM MDT
Astronomical Twilight 6:05 AM MDT 7:46 PM MDT
Moon 10:08 AM MDT (10/30) 8:41 PM MDT (10/30)
Length of Visible Light 11h 46m
Length of Day
10h 55m
Waxing Crescent, 9% of the Moon is Illuminated
Oct 30
Waxing Crescent
Nov 4
First Quarter
Nov 12
Full
Nov 19
Last Quarter
Nov 26
New

Hourly Weather History & Observations

Time (MDT) Temp. Windchill Dew Point Humidity Pressure Visibility Wind Dir Wind Speed Gust Speed Precip Events Conditions
12:15 AM 50.5 °F - 9.3 °F 19% 29.97 in 10.0 mi West 9.2 mph - N/A   Clear
12:35 AM 48.9 °F - 9.1 °F 20% 29.96 in 10.0 mi West 9.2 mph - N/A   Clear
12:55 AM 48.7 °F - 9.3 °F 20% 29.96 in 10.0 mi WNW 11.5 mph 17.3 mph N/A   Clear
1:15 AM 48.0 °F - 8.8 °F 20% 29.96 in 10.0 mi WNW 11.5 mph 17.3 mph N/A   Clear
1:35 AM 47.7 °F - 8.6 °F 21% 29.96 in 10.0 mi NW 10.4 mph - N/A   Clear
1:55 AM 45.5 °F 42.5 °F 8.4 °F 22% 29.97 in 10.0 mi NNW 5.8 mph - N/A   Clear
2:15 AM 44.6 °F 41.4 °F 8.4 °F 23% 29.98 in 10.0 mi NNW 5.8 mph - N/A   Clear
2:35 AM 43.9 °F 42.3 °F 8.2 °F 23% 29.98 in 10.0 mi North 3.5 mph - N/A   Clear
2:55 AM 37.8 °F 32.5 °F 7.9 °F 29% 29.98 in 10.0 mi NNW 6.9 mph - N/A   Clear
3:15 AM 42.3 °F 36.8 °F 8.2 °F 25% 29.98 in 10.0 mi NW 9.2 mph - N/A   Clear
3:35 AM 41.7 °F 37.3 °F 8.1 °F 25% 29.99 in 10.0 mi NNW 6.9 mph - N/A   Clear
3:55 AM 41.7 °F - 8.8 °F 26% 29.99 in 10.0 mi Calm Calm - N/A   Clear
4:15 AM 41.7 °F - 8.8 °F 26% 29.99 in 10.0 mi Calm Calm - N/A   Clear
4:35 AM 41.5 °F 37.8 °F 10.0 °F 28% 29.99 in 10.0 mi NW 5.8 mph - N/A   Clear
4:55 AM 43.2 °F 39.0 °F 11.3 °F 27% 30.00 in 10.0 mi NW 6.9 mph - N/A   Clear
5:15 AM 40.3 °F 38.2 °F 10.8 °F 30% 30.01 in 10.0 mi North 3.5 mph - N/A   Clear
5:35 AM 42.8 °F - 11.3 °F 28% 30.02 in 10.0 mi Calm Calm - N/A   Clear
5:55 AM 41.4 °F - 11.3 °F 29% 30.02 in 10.0 mi Calm Calm - N/A   Clear
6:15 AM 39.7 °F - 11.3 °F 31% 30.02 in 10.0 mi Calm Calm - N/A   Clear
6:35 AM 40.3 °F - 11.5 °F 31% 30.03 in 10.0 mi Calm Calm - N/A   Clear
6:55 AM 40.3 °F 37.1 °F 11.3 °F 31% 30.05 in 10.0 mi North 4.6 mph - N/A   Clear
7:15 AM 36.9 °F 30.7 °F 11.3 °F 35% 30.06 in 10.0 mi North 8.1 mph - N/A   Clear
7:35 AM 33.8 °F 30.8 °F 11.1 °F 39% 30.07 in 10.0 mi NW 3.5 mph - N/A   Clear
7:55 AM 33.6 °F 26.2 °F 11.5 °F 40% 30.08 in 10.0 mi NW 9.2 mph - N/A   Clear
8:15 AM 39.0 °F 32.3 °F 11.7 °F 33% 30.10 in 10.0 mi NNW 10.4 mph - N/A   Clear
8:35 AM 41.9 °F 35.9 °F 11.5 °F 29% 30.12 in 10.0 mi WNW 10.4 mph - N/A   Clear
8:55 AM 43.2 °F 36.2 °F 9.9 °F 26% 30.13 in 10.0 mi WNW 13.8 mph - N/A   Clear
9:15 AM 42.4 °F 35.3 °F 8.6 °F 25% 30.15 in 10.0 mi WNW 13.8 mph - N/A   Clear
9:35 AM 45.1 °F 39.1 °F 8.4 °F 22% 30.16 in 10.0 mi WNW 12.7 mph - N/A   Clear
9:55 AM 46.6 °F - 7.7 °F 21% 30.17 in 10.0 mi WNW 13.8 mph - N/A   Clear
10:15 AM 47.3 °F - 7.3 °F 20% 30.18 in 10.0 mi NW 16.1 mph - N/A   Clear
10:35 AM 47.3 °F - 3.7 °F 17% 30.17 in 10.0 mi WNW 17.3 mph - N/A   Clear
10:55 AM 48.9 °F - 4.1 °F 16% 30.19 in 10.0 mi WNW 13.8 mph - N/A   Clear
11:15 AM 49.5 °F - 3.6 °F 15% 30.19 in 10.0 mi WNW 16.1 mph - N/A   Clear
11:35 AM 51.3 °F - 4.3 °F 15% 30.18 in 10.0 mi North 9.2 mph 16.1 mph N/A   Clear
11:55 AM 53.8 °F - 4.3 °F 14% 30.19 in 10.0 mi North 8.1 mph - N/A   Clear
12:15 PM 53.8 °F - -3.8 °F 9% 30.19 in 10.0 mi North 12.7 mph 19.6 mph N/A   Clear
12:35 PM 54.7 °F - -9.4 °F 7% 30.19 in 10.0 mi North 11.5 mph 18.4 mph N/A   Clear
12:55 PM 54.5 °F - -10.7 °F 7% 30.18 in 10.0 mi NW 11.5 mph 16.1 mph N/A   Clear
1:15 PM 53.4 °F - -12.1 °F 6% 30.18 in 10.0 mi NNE 9.2 mph - N/A   Clear
1:35 PM 54.9 °F - -15.7 °F 5% 30.17 in 10.0 mi NW 15.0 mph 29.9 mph N/A   Clear
1:55 PM 55.8 °F - -16.4 °F 5% 30.17 in 10.0 mi NNE 8.1 mph - N/A   Clear
2:15 PM 54.9 °F - -16.8 °F 5% 30.16 in 10.0 mi ENE 3.5 mph - N/A   Clear
2:35 PM 55.4 °F - -14.1 °F 5% 30.17 in 10.0 mi North 4.6 mph - N/A   Clear
2:55 PM 55.4 °F - -15.0 °F 5% 30.17 in 10.0 mi NNW 3.5 mph - N/A   Clear
3:35 PM 56.5 °F - -13.2 °F 5% 30.17 in 10.0 mi NNE 9.2 mph - N/A   Clear
3:55 PM 56.3 °F - -13.5 °F 5% 30.18 in 10.0 mi NNW 4.6 mph - N/A   Clear
4:15 PM 56.1 °F - -13.9 °F 5% 30.19 in 10.0 mi Calm Calm - N/A   Clear
4:35 PM 55.9 °F - -13.2 °F 6% 30.19 in 10.0 mi SE 3.5 mph - N/A   Clear
4:55 PM 56.1 °F - -12.3 °F 6% 30.19 in 10.0 mi Calm Calm - N/A   Clear
5:15 PM 56.1 °F - -7.4 °F 7% 30.20 in 10.0 mi SSE 12.7 mph - N/A   Clear
5:35 PM 53.8 °F - -8.5 °F 8% 30.21 in 10.0 mi SSE 8.1 mph - N/A   Clear
5:55 PM 52.0 °F - -8.5 °F 8% 30.21 in 10.0 mi SSE 9.2 mph - N/A   Clear
6:15 PM 49.3 °F - -11.4 °F 8% 30.22 in 10.0 mi SE 9.2 mph - N/A   Clear
6:35 PM 46.2 °F 42.7 °F -10.1 °F 9% 30.23 in 10.0 mi ESE 6.9 mph - N/A   Clear
6:55 PM 43.2 °F 38.4 °F -9.8 °F 11% 30.23 in 10.0 mi SE 8.1 mph - N/A   Clear
7:15 PM 40.5 °F 36.5 °F -9.6 °F 12% 30.24 in 10.0 mi SE 5.8 mph - N/A   Clear
7:35 PM 38.8 °F 34.6 °F -9.2 °F 13% 30.26 in 10.0 mi East 5.8 mph - N/A   Clear
7:55 PM 38.3 °F - -8.1 °F 14% 30.27 in 10.0 mi Calm Calm - N/A   Clear
8:15 PM 32.4 °F - -8.1 °F 17% 30.27 in 10.0 mi Calm Calm - N/A   Clear
8:35 PM 27.9 °F 21.5 °F -8.3 °F 21% 30.28 in 10.0 mi WNW 5.8 mph - N/A   Clear
8:55 PM 31.5 °F 23.5 °F -7.8 °F 18% 30.28 in 10.0 mi NW 9.2 mph - N/A   Clear
9:15 PM 30.2 °F 20.8 °F -7.6 °F 19% 30.29 in 10.0 mi NNW 11.5 mph - N/A   Clear
9:35 PM 28.2 °F 20.2 °F -7.2 °F 21% 30.30 in 10.0 mi NNW 8.1 mph - N/A   Clear
9:55 PM 28.2 °F 19.5 °F -7.1 °F 21% 30.31 in 10.0 mi NNW 9.2 mph - N/A   Clear
10:15 PM 29.1 °F 19.4 °F -6.3 °F 21% 30.31 in 10.0 mi North 11.5 mph - N/A   Clear
10:35 PM 28.2 °F 19.5 °F -6.2 °F 22% 30.31 in 10.0 mi North 9.2 mph - N/A   Clear
10:55 PM 28.9 °F 21.1 °F -6.9 °F 21% 30.31 in 10.0 mi North 8.1 mph - N/A   Clear
11:15 PM 26.1 °F 20.5 °F -6.5 °F 24% 30.32 in 10.0 mi North 4.6 mph - N/A   Clear
11:35 PM 27.3 °F 20.9 °F -6.7 °F 23% 30.32 in 10.0 mi West 5.8 mph - N/A   Clear
11:55 PM 23.4 °F 16.2 °F -7.2 °F 26% 30.32 in 10.0 mi WNW 5.8 mph - N/A   Clear